{"data":{"norad_id":87565,"epoch":"2026-09-11T06:58:42.375072Z","epoch_age_seconds":810019,"freshness":"AGED","line1":"1 87565U          26254.29076823  .00000831  00000+0  46570-3 0  9993","line2":"2 87565  99.9479 277.8361 0171608 152.4860 208.5519 14.06598899654748","mean_motion":14.06598899,"eccentricity":0.0171608,"inclination_deg":99.9479,"raan_deg":277.8361,"arg_perigee_deg":152.486,"mean_anomaly_deg":208.5519,"bstar":0.0004657,"rev_number":65474,"period_min":102.37460025198,"perigee_km":746.63212269623,"apogee_km":995.43525948761,"semimajor_km":7249.1706910919,"source":"CELESTRAK","updated_at":"2026-09-20T09:00:32.476452Z"}}